Weather History for Newport, RI

Change the Weather History Date:

Monday, August 26, 2013

  Actual Average Record
Temperature  
Mean Temperature 70 °F -  
Max Temperature 73 °F 77 °F 86 °F (1959)
Min Temperature 66 °F 60 °F 46 °F (1981)
Cooling Degree Days 4    
Growing Degree Days 20 (Base 50)    
Moisture  
Dew Point 63 °F    
Average Humidity 81    
Maximum Humidity 96    
Minimum Humidity 70    
Precipitation  
Precipitation 0.06 in - - ()
Sea Level Pressure  
Sea Level Pressure 30.04 in    
Wind  
Wind Speed 5 mph (SSW)    
Max Wind Speed 12 mph    
Max Gust Speed 20 mph    
Visibility 9 miles    
Events Rain    
Averages and records for this station are not official NWS values.
T = Trace of Precipitation, MM = Missing Value Source: NWS Daily Summary

Daily Weather History Graph

Daily Weather History Graph

Search for Another Location

Airport:

Trip Planner

Search our weather history database for the weather conditions in past years. The results will help you decide how hot, cold, wet, or windy it might be!

Date:

Astronomy

Aug. 26, 2013 Rise Set
Actual Time 6:05 AM EDT 7:27 PM EDT
Civil Twilight 5:36 AM EDT 7:56 PM EDT
Nautical Twilight 5:01 AM EDT 8:30 PM EDT
Astronomical Twilight 4:24 AM EDT 9:07 PM EDT
Moon 10:30 PM EDT (8/26) 12:09 PM EDT (8/26)
Length of Visible Light 14h 19m
Length of Day
13h 22m
Waning Gibbous, 67% of the Moon is Illuminated
Aug 26
Waning Gibbous
Aug 28
Last Quarter
Sep 5
New
Sep 12
First Quarter
Sep 19
Full

Hourly Weather History & Observations

Time (EDT) Temp. Dew Point Humidity Pressure Visibility Wind Dir Wind Speed Gust Speed Precip Events Conditions
12:53 AM 66.9 °F 61.0 °F 81% 30.22 in 10.0 mi Variable 3.5 mph - N/A   Clear
1:53 AM 66.9 °F 61.0 °F 81% 30.20 in 10.0 mi SSW 5.8 mph - N/A   Clear
2:53 AM 66.9 °F 61.0 °F 81% 30.19 in 10.0 mi Variable 3.5 mph - N/A   Clear
3:53 AM 66.9 °F 61.0 °F 81% 30.17 in 10.0 mi SSW 4.6 mph - N/A   Clear
4:53 AM 66.0 °F 61.0 °F 84% 30.15 in 10.0 mi Calm Calm - N/A   Clear
5:53 AM 66.9 °F 61.0 °F 81% 30.14 in 10.0 mi SSW 5.8 mph - N/A   Clear
6:53 AM 68.0 °F 60.1 °F 76% 30.13 in 10.0 mi Variable 6.9 mph - N/A   Partly Cloudy
7:53 AM 68.0 °F 60.1 °F 76% 30.12 in 10.0 mi SSW 5.8 mph - N/A   Overcast
8:53 AM 69.1 °F 59.0 °F 70% 30.12 in 10.0 mi Variable 5.8 mph - N/A   Overcast
9:53 AM 69.1 °F 59.0 °F 70% 30.11 in 10.0 mi Variable 4.6 mph - N/A   Overcast
10:53 AM 69.1 °F 61.0 °F 75% 30.09 in 10.0 mi SSW 11.5 mph 19.6 mph N/A   Overcast
1:53 PM 71.1 °F 63.0 °F 75% 30.02 in 10.0 mi SSW 6.9 mph - N/A   Mostly Cloudy
2:53 PM 73.0 °F 63.0 °F 71% 29.99 in 10.0 mi SSW 11.5 mph 16.1 mph N/A   Partly Cloudy
3:53 PM 73.0 °F 64.0 °F 73% 29.96 in 10.0 mi SW 8.1 mph - N/A   Clear
4:53 PM 71.1 °F 64.0 °F 78% 29.95 in 10.0 mi SSW 9.2 mph - N/A   Mostly Cloudy
5:53 PM 71.1 °F 64.9 °F 81% 29.94 in 10.0 mi SSW 10.4 mph 17.3 mph N/A   Clear
6:53 PM 70.0 °F 64.9 °F 84% 29.94 in 10.0 mi Variable 4.6 mph - N/A   Mostly Cloudy
7:53 PM 70.0 °F 66.0 °F 87% 29.94 in 10.0 mi SW 3.5 mph - N/A   Mostly Cloudy
8:53 PM 70.0 °F 64.9 °F 84% 29.94 in 10.0 mi Variable 4.6 mph - N/A   Overcast
9:53 PM 70.0 °F 66.0 °F 87% 29.94 in 10.0 mi Calm Calm - 0.00 in Rain Light Rain
10:53 PM 69.1 °F 66.9 °F 93% 29.93 in 4.0 mi Calm Calm - 0.02 in Rain Light Rain
11:01 PM 69.8 °F 66.2 °F 88% 29.93 in 3.0 mi Variable 3.5 mph - 0.01 in Rain Rain
11:18 PM 69.8 °F 66.2 °F 88% 29.93 in 4.0 mi SW 5.8 mph - 0.04 in Rain Light Rain
11:48 PM 68.0 °F 66.2 °F 94% 29.92 in 4.0 mi Variable 3.5 mph - 0.04 in Rain Light Rain
11:53 PM 68.0 °F 66.9 °F 96% 29.92 in 4.0 mi SW 3.5 mph - 0.04 in Rain Light Rain